Voltar ao catálogo

STARLINK-34175

AtivoComunicaçõesSSO
NORAD 64169·PAYLOAD·🇺🇸 United States

Lançado May 27, 2025 de Vandenberg Space Force Base

Loading…

Próximas Passagens (próximas 24 horas)

TLE

AtualizadoSource: CelesTrak SupGP

Época: Sep 14, 2026, 14:21 UTC

1 64169C 25112Z   26257.59840278  .00026724  00000+0  82952-3 0  2578
2 64169  97.2837 304.7534 0001424  98.3199 268.7156 15.33427947    11

Acompanhe STARLINK-34175 em tempo real com AllMySat

Download on the App Store